Location: Newark
(7.0858°N, 171.3717°E)
Time: 05:40:45
(UTC+00:00)

Courier 1B Rocket - Pass Details

Date: 03 December 2020
Orbit: 920 x 1202 km, 28.2° (Epoch: 20 January)

Event Time Altitude Azimuth Distance (km) Brightness Sun altitude
Rises 19:42:43 0° 314° (NW) 4,090 7.7 15.1°
Reaches altitude 10° 19:46:44 10° 332° (NNW) 3,120 7.2 16.0°
Maximum altitude 19:51:43 18° 12° (NNE) 2,542 7.1 17.1°
Drops below altitude 10° 19:56:37 10° 53° (NE) 3,053 8.0 18.2°
Sets 20:00:28 0° 71° (ENE) 3,969 8.9 19.0°
